Location: Most
(50.5133°N, 13.6207°E)
Time: 14:25:34
(UTC+02:00)

ISS - Pass Details

Date: 16 September 2017
Orbit: 402 x 407 km, 51.6° (Epoch: 21 September)

Event Time Altitude Azimuth Distance (km) Brightness Sun altitude
Exits shadow 04:29:30 74° 52° (NE) 429 -3.7 -20.7°
Drops below altitude 10° 04:32:37 10° 96° (E) 1,470 -0.3 -20.3°
Sets 04:34:42 0° 98° (E) 2,330 0.8 -20.0°
